Volver al catálogo

FENGYUN 1C DEB

ActivoSSO
NORAD 46986·DEBRIS·🇨🇳 China

Lanzado May 10, 1999 desde Taiyuan Satellite Launch Center

Loading…

Próximos Pases (próximas 24 horas)

TLE

ActualizadoSource: Space-Track

Época: Sep 13, 2026, 06:43 UTC

1 46986U 99025EZL 26256.28012063  .00001003  00000-0  26353-3 0  9997
2 46986  98.2186 277.6109 0105392  93.5954 267.7300 14.47983710673720

Sigue FENGYUN 1C DEB en tiempo real con AllMySat

Download on the App Store